Location: Jackson Park
(37.2862°N, 79.9123°W)
Time: 01:49:45
(UTC+00:00)

Tiros 1 despin weight - Pass Details

Date: 15 May 2026
Orbit: 554 x 591 km, 48.2° (Epoch: 6 June)

Event Time Altitude Azimuth Distance (km) Brightness Sun altitude
Rises 15:27:11 0° 307° (NW) 2,732 ? 60.0°
Reaches altitude 10° 15:29:31 10° 314° (NW) 1,834 ? 60.4°
Maximum altitude 15:33:33 45° 27° (NNE) 764 ? 61.1°
Drops below altitude 10° 15:37:33 10° 101° (E) 1,829 ? 61.8°
Sets 15:39:52 0° 108° (ESE) 2,725 ? 62.1°
